Wetbulb
33.46 34.06 33.77 32.34 31.77 32.70 30.88 31.51 28.95 30.57 31.34 34.89 37.16 37.89 38.52 39.87 41.95 41.48 43.37 44.73 43.98 45.40 48.95 49.65 50.23 50.84 52.26 56.84 59.55 62.80 62.51 63.10 63.23 64.06 64.72 65.29 65.25 65.51 66.18 66.50 66.57 66.25 65.63 65.94
30.39 33.20 32.98 31.24 33.11 32.86 33.02 33.29 33.45 34.65 33.45 39.22 38.73 40.08 39.48 39.82 40.25 40.42 44.13 45.70 47.45 48.88 49.54 50.53 52.40 52.04 53.37 57.74 62.65 64.50 64.32 64.46 65.26 65.23 65.90 65.56 65.27 65.42 65.58 64.97 65.01 64.90 64.72 64.50
26.95 31.01 30.25 27.23 31.37 33.49 34.72 37.05 36.31 31.75 34.33 37.76 37.37 37.72 38.27 38.73 39.85 40.45 44.17 45.42 46.69 47.68 49.65 50.02 52.43 53.15 56.20 58.33 63.75 65.13 64.82 64.95 65.41 65.92 65.28 65.40 64.98 64.17 63.39 63.20 63.96 62.98 62.09 62.21
28.65 28.99 20.09 30.83 38.68 38.61 35.85 36.76 37.92 37.64 37.34 38.71 38.81 39.71 39.71 40.88 39.73 40.97 45.03 44.80 46.09 47.79 48.51 50.13 52.90 56.34 56.96 58.74 62.82 64.06 64.68 64.55 64.43 64.47 64.33 64.00 63.56 62.73 61.95 61.28 60.29 59.56 58.81 58.09
25.95 24.85 27.73 31.69 35.55 35.64 33.61 32.70 37.97 36.52 37.14 38.17 39.92 39.78 38.35 42.34 43.48 44.58 44.40 44.39 46.28 48.14 49.31 50.81 53.29 57.40 56.61 57.74 57.88 63.14 62.87 62.71 62.61 62.46 62.18 62.19 61.56 61.03 60.15 58.83 57.93 57.33 57.83 58.07
28.76 22.95 20.16 29.40 38.20 40.03 38.44 29.74 38.23 37.48 36.14 36.63 38.87 32.49 35.46 41.09 42.12 42.91 44.37 45.76 46.90 48.90 49.84 50.22 54.70 57.23 56.49 57.42 57.74 62.08 62.24 61.87 62.17 62.00 61.96 61.50 60.91 59.32 58.66 57.98 57.35 57.75 57.77 58.52
28.38 26.47 27.14 36.18 38.86 39.88 29.26 29.54 36.95 38.43 37.80 38.52 36.85 38.69 41.42 43.73 43.93 45.09 45.72 46.60 49.06 49.75 49.99 53.02 57.37 58.86 57.09 57.39 58.21 62.48 62.21 61.67 61.64 61.57 61.44 61.25 60.34 59.17 58.32 57.71 57.11 56.45 56.39 57.57
28.51 25.45 19.60 39.87 38.66 32.44 37.19 38.39 38.98 39.41 40.16 39.51 40.84 42.08 43.21 44.09 44.65 45.75 46.31 48.07 50.27 50.85 53.05 55.00 57.58 58.40 57.17 56.13 59.19 62.18 61.20 61.07 60.69 60.62 61.07 60.78 59.86 58.96 57.94 57.51 56.61 56.43 57.41 57.35
30.49 29.51 38.36 40.92 39.89 42.12 41.71 37.95 39.25 39.66 41.22 41.82 41.67 41.88 43.50 44.29 45.72 46.72 48.03 49.80 52.73 54.24 53.99 55.24 56.97 57.36 56.90 56.95 56.97 60.33 60.35 60.04 59.84 60.21 60.38 60.37 59.11 58.05 57.51 57.49 56.81 56.05 56.10 56.43
33.81 36.29 36.55 40.37 41.40 41.01 40.02 40.14 41.93 41.20 41.05 41.66 40.77 42.87 43.43 44.78 46.14 48.11 50.15 51.79 53.87 54.71 55.15 53.98 57.26 56.77 58.60 59.11 59.69 59.76 58.75 59.09 59.46 59.44 59.57 60.20 59.55 58.89 57.61 56.83 56.77 56.53 56.59 56.73
35.98 38.03 37.55 39.20 39.85 39.79 39.86 42.04 40.83 42.22 42.55 42.66 43.16 43.25 44.43 45.50 46.21 47.52 48.81 50.99 53.56 54.97 57.47 58.22 58.95 59.28 59.20 59.67 59.58 59.02 59.35 59.31 59.19 59.25 56.89 51.20 48.11 54.75 57.67 57.71 57.20 56.85 56.79 57.37
34.37 40.39 38.95 37.46 39.76 41.64 40.18 40.22 41.51 41.90 42.11 43.63 44.18 43.94 44.92 44.68 45.75 47.22 48.67 50.69 53.69 58.15 58.18 58.37 58.56 58.50 58.94 59.34 59.45 58.90 58.07 58.32 57.57 56.50 55.01 53.99 53.75 51.58 41.41 43.80 46.16 46.52 49.20 54.23
39.71 42.81 40.91 39.68 41.64 41.96 41.28 41.70 42.31 42.28 42.61 42.45 43.21 44.17 44.03 44.13 46.05 47.39 52.75 56.97 56.65 57.55 58.86 59.24 58.69 58.54 59.65 59.68 59.55 58.54 56.56 56.66 55.32 55.32 55.69 55.00 55.10 55.57 52.38 46.14 40.76 40.29 41.26 42.17
42.74 39.42 37.89 38.85 38.19 41.87 42.46 42.21 42.86 42.87 43.14 42.72 42.89 43.47 43.49 43.89 45.63 47.26 49.85 54.95 54.98 56.09 58.68 58.36 57.90 57.54 58.91 59.74 59.17 58.01 56.73 49.98 56.47 56.23 56.25 56.11 56.19 55.59 56.65 56.31 54.24 51.10 40.84 41.78
39.49 40.18 40.03 40.57 41.94 41.93 42.48 41.96 41.45 40.29 40.65 41.09 41.80 41.68 42.29 42.49 44.35 45.45 48.71 53.15 53.58 54.30 54.76 57.37 57.55 57.45 59.77 59.63 58.86 58.23 58.16 57.79 57.56 57.49 57.09 55.49 57.28 57.28 57.93 56.61 53.83 49.49 49.58 44.59
39.64 39.01 40.38 38.81 40.02 41.25 41.15 41.16 40.07 40.15 39.97 39.92 40.20 40.55 41.44 43.31 44.02 45.24 47.85 50.01 49.51 48.27 50.09 52.04 53.90 55.18 59.28 59.78 59.27 58.90 57.06 48.67 52.86 57.31 56.73 57.04 57.52 57.11 56.11 54.67 54.34 54.17 51.74 49.29
36.92 36.99 38.66 38.51 40.68 40.65 40.82 41.73 41.37 39.82 40.23 39.61 39.63 40.83 41.19 41.89 42.61 43.07 44.99 48.85 47.80 46.33 46.16 47.93 49.79 54.82 58.25 59.60 59.06 58.48 57.19 56.67 50.64 57.04 56.13 56.85 56.48 56.41 56.42 56.14 55.00 53.31 52.07 50.59
40.10 40.66 41.12 40.65 41.28 40.73 41.21 41.51 40.08 39.74 38.90 39.68 40.37 40.54 40.28 39.97 40.51 41.58 42.83 45.46 47.19 46.81 44.88 45.62 48.09 52.54 58.04 59.49 59.63 58.96 58.41 58.29 58.20 56.31 56.42 56.96 57.26 57.34 56.68 55.51 54.43 53.46 52.73 46.13
40.32 40.21 41.28 40.88 42.28 41.29 41.79 41.08 40.00 40.08 39.92 39.89 39.68 39.32 40.02 40.18 40.48 41.92 42.05 42.18 42.72 44.02 43.13 45.39 44.07 49.72 55.51 53.51 57.70 59.75 59.24 58.72 57.89 57.02 56.42 52.21 56.83 56.96 56.23 55.41 55.06 54.29 53.53 52.04
40.75 41.42 41.19 41.26 42.34 41.73 41.45 41.14 40.90 40.55 40.39 39.94 39.78 39.22 38.72 39.53 39.84 41.14 41.78 39.43 40.43 42.82 44.72 44.76 49.60 50.67 51.70 51.99 52.36 59.96 59.60 58.65 57.49 56.31 56.23 56.12 56.45 56.01 55.57 50.85 54.31 52.02 49.15 46.80
40.21 40.74 40.50 40.86 41.12 41.81 41.93 42.08 41.47 40.42 40.69 40.31 39.06 38.45 38.60 39.43 40.43 39.12 38.96 39.42 39.99 42.83 43.72 42.83 46.96 50.00 49.59 50.01 53.82 57.41 58.72 58.13 57.36 56.43 56.05 55.20 53.63 52.03 51.09 49.60 48.35 46.88 44.63 42.46
39.23 40.07 40.49 41.10 41.11 40.75 41.71 41.73 41.71 41.08 40.60 40.28 40.26 39.76 38.93 38.37 39.22 39.60 39.24 38.33 39.84 37.39 42.59 44.23 46.18 42.82 45.42 45.32 52.31 52.95 52.47 53.28 53.77 53.50 51.72 50.19 48.37 46.56 44.95 43.68 42.84 42.40 41.57 40.58
39.93 40.03 40.20 40.74 40.17 40.71 41.17 40.77 40.65 40.75 39.94 40.02 39.55 39.34 39.22 39.28 39.51 37.79 36.87 39.65 39.97 37.95 40.89 39.74 37.47 38.90 39.81 48.21 47.91 49.11 49.82 48.86 48.40 48.59 48.70 47.46 45.98 44.18 42.17 40.69 39.57 38.51 37.84 37.17
45.20 41.79 40.07 41.02 41.24 40.75 39.25 39.46 39.96 40.41 40.59 40.82 40.64 40.56 40.12 39.19 40.15 41.76 41.86 39.81 37.03 38.01 38.19 37.45 37.51 35.74 39.73 46.62 46.58 45.25 45.75 45.52 43.92 43.05 42.39 40.38 42.48 41.12 39.82 38.31 36.82 36.23 35.66 34.95
44.11 44.29 41.79 39.53 38.87 39.16 39.89 40.15 39.80 38.74 39.21 39.33 40.49 41.11 41.05 41.50 40.56 41.42 42.02 41.35 37.44 39.58 40.40 36.51 35.91 36.47 41.29 40.79 40.37 40.90 42.47 42.91 43.26 42.89 42.00 41.28 40.16 39.22 38.39 37.56 36.64 35.77 35.80 35.69
39.87 39.97 43.36 42.53 40.03 39.43 39.93 39.99 38.68 38.40 38.12 37.81 38.98 40.40 40.52 40.74 41.34 41.94 41.82 40.04 41.08 38.66 39.38 39.21 39.42 39.97 39.82 39.45 39.06 38.66 38.34 38.30 38.78 39.13 38.64 38.20 37.43 36.95 36.48 36.13 35.62 35.19 34.49 33.89
38.00 37.71 39.49 40.50 41.65 43.19 40.68 38.94 38.97 38.13 38.47 37.77 37.12 38.27 39.20 39.16 38.71 39.10 39.16 40.78 40.56 40.66 40.09 39.61 39.37 38.17 38.45 38.19 37.87 37.73 37.51 37.33 36.40 37.08 36.90 36.55 36.29 35.70 35.41 34.98 34.73 34.66 34.19 33.55
MSLP
1012.55 1012.09 1011.71 1011.00 1010.49 1010.42 1010.67 1009.92 1009.78 1007.60 1007.64 1006.27 1005.93 1005.35 1004.74 1004.10 1003.35 1002.62 1001.66 1000.63 999.90 999.67 999.19 998.66 997.78 996.72 995.85 995.03 994.55 994.04 993.80 993.83 994.61 994.94 995.53 996.03 996.87 997.67 998.32 998.91 999.41 1000.14 1000.84 1001.63
1012.10 1011.52 1010.96 1010.22 1009.05 1008.86 1008.51 1008.34 1008.11 1007.75 1006.77 1005.62 1004.81 1004.53 1004.45 1004.01 1003.35 1002.40 1001.42 1000.51 999.58 999.08 998.52 998.12 996.91 995.81 995.00 994.19 993.66 993.28 992.82 993.28 994.03 994.86 995.48 996.13 997.08 997.82 998.29 998.99 999.62 1000.35 1001.17 1001.80
1011.42 1010.85 1010.63 1009.21 1007.19 1007.14 1007.04 1006.91 1007.30 1006.84 1005.49 1005.12 1004.55 1004.41 1004.22 1003.60 1002.88 1002.05 1001.27 1000.56 999.65 999.62 998.91 997.89 996.76 995.63 994.48 993.78 992.99 992.60 992.51 992.89 993.38 994.56 995.43 996.25 997.02 997.68 998.42 999.34 1000.05 1000.77 1001.54 1002.02
1011.56 1011.15 1009.93 1007.09 1006.50 1006.44 1006.55 1006.36 1006.14 1005.69 1005.15 1004.93 1004.47 1003.99 1003.40 1003.03 1001.92 1000.94 1000.32 1000.06 1000.04 999.86 998.51 997.36 996.58 995.19 994.07 993.50 992.64 991.98 992.48 992.26 993.32 994.33 995.33 996.26 997.06 997.90 998.81 999.63 1000.41 1001.22 1001.98 1002.61
1011.77 1011.07 1009.08 1006.99 1006.53 1006.75 1006.75 1006.19 1005.98 1005.98 1005.68 1005.17 1004.24 1003.26 1001.90 1001.82 1001.10 1000.47 999.92 999.36 999.05 998.57 998.17 997.27 995.75 994.39 993.75 993.41 992.54 992.01 992.29 992.53 993.11 993.98 995.32 996.34 997.20 998.02 999.12 1000.05 1001.12 1001.93 1002.54 1003.13
1011.77 1010.99 1009.50 1007.68 1007.30 1007.23 1007.10 1006.44 1006.24 1006.31 1005.80 1004.91 1004.01 1002.83 1000.90 1001.23 1000.86 999.99 999.38 998.60 997.92 996.60 995.80 994.78 994.17 993.66 993.41 993.21 992.27 991.56 992.02 992.80 993.43 994.17 995.45 996.50 997.10 998.43 999.80 1000.54 1001.59 1002.37 1003.09 1003.64
1011.26 1010.59 1009.17 1008.23 1008.18 1007.93 1007.36 1007.42 1006.74 1006.19 1005.39 1004.23 1003.51 1002.98 1001.15 1000.35 999.64 999.44 998.18 996.83 996.54 995.57 995.27 994.31 993.25 992.71 992.60 992.64 992.13 991.57 991.98 992.87 993.86 994.39 995.55 996.17 997.66 999.07 1000.13 1001.15 1002.00 1002.94 1003.70 1004.25
1010.98 1010.08 1009.14 1008.30 1008.22 1008.27 1007.43 1006.62 1006.28 1005.35 1004.66 1003.75 1002.93 1001.91 1000.83 999.81 998.63 997.56 996.61 995.46 994.79 994.22 993.54 992.68 991.95 991.99 992.01 992.57 992.39 992.37 992.35 993.18 993.77 995.16 996.20 997.30 998.32 999.84 1000.60 1001.42 1002.48 1003.35 1003.85 1004.55
1011.07 1008.96 1007.90 1007.84 1007.77 1007.37 1006.63 1006.35 1005.52 1004.75 1003.92 1003.13 1002.32 1001.36 1000.10 998.88 997.81 996.56 995.39 994.36 993.33 992.62 991.82 991.34 991.09 991.37 991.76 992.39 992.61 993.11 993.79 993.59 994.45 995.86 996.97 998.00 998.95 1000.10 1001.20 1002.16 1002.78 1003.51 1004.15 1004.79
1010.32 1008.33 1008.28 1008.11 1007.28 1006.70 1006.22 1005.71 1004.97 1004.27 1003.30 1002.69 1001.89 1000.90 999.62 998.27 996.86 995.83 994.65 993.32 992.36 991.42 990.27 989.57 989.98 990.70 991.29 991.56 992.43 992.76 992.39 994.84 995.23 996.38 997.69 998.54 999.49 1000.54 1001.62 1002.43 1002.99 1003.64 1004.31 1004.76
1009.06 1008.33 1008.13 1007.47 1006.76 1005.97 1005.55 1005.09 1004.24 1003.40 1002.65 1002.04 1001.19 1000.08 999.10 997.48 996.19 995.32 993.71 992.07 991.63 989.89 988.94 988.06 988.96 989.90 990.70 991.19 992.51 993.25 994.32 995.06 996.09 997.20 998.19 999.44 1000.71 1001.72 1002.14 1002.56 1002.67 1003.45 1004.04 1004.50
1008.09 1007.87 1007.66 1007.06 1006.23 1005.61 1005.14 1004.44 1003.64 1002.85 1001.96 1001.48 1000.78 999.95 998.44 997.21 995.82 995.15 992.95 991.45 989.64 989.42 989.48 989.11 989.22 990.24 991.14 991.95 992.82 993.67 994.80 995.80 996.85 997.54 998.72 999.85 1001.02 1002.55 1003.08 1003.10 1003.30 1003.67 1004.09 1004.54
1008.04 1007.27 1006.92 1006.35 1005.73 1005.56 1004.85 1003.94 1003.17 1002.63 1001.75 1000.92 1000.19 999.77 998.92 997.43 995.62 993.90 992.38 990.22 990.72 990.43 990.19 989.61 989.58 990.02 990.82 991.93 992.88 994.01 995.20 996.03 996.96 997.82 999.07 1000.17 1001.30 1002.20 1003.45 1004.62 1004.58 1004.72 1004.84 1005.25
1007.40 1007.03 1006.61 1006.14 1005.64 1005.16 1004.66 1003.74 1002.93 1002.28 1001.62 1000.97 1000.37 999.83 998.81 997.29 995.87 994.72 992.73 992.19 991.78 991.33 990.98 990.81 991.00 991.48 991.99 992.64 993.40 994.37 995.47 996.37 997.31 998.49 999.44 1000.44 1001.27 1002.15 1002.90 1003.82 1004.73 1005.77 1006.37 1006.30
1007.64 1007.19 1006.85 1006.37 1005.48 1004.95 1004.37 1003.53 1002.77 1002.24 1001.46 1000.53 1000.37 999.85 998.32 997.24 996.28 995.66 994.60 993.48 993.08 992.76 992.54 992.17 992.38 992.92 993.13 993.56 994.19 995.11 996.03 997.29 998.20 999.11 999.95 1000.62 1001.41 1002.15 1002.81 1003.68 1004.72 1005.89 1006.58 1007.11
1007.66 1007.41 1006.82 1006.24 1005.67 1005.23 1004.41 1003.68 1003.10 1002.61 1001.99 1001.09 1000.63 1000.05 998.71 997.70 997.11 996.33 995.46 994.39 993.98 994.33 994.17 993.94 993.97 994.14 994.03 994.27 995.06 996.13 997.04 997.85 998.67 999.62 1000.37 1000.94 1001.60 1002.26 1003.02 1003.99 1004.99 1005.69 1006.63 1007.52
1008.00 1007.31 1006.71 1006.16 1005.74 1005.26 1004.71 1004.07 1003.62 1003.17 1002.43 1001.89 1000.75 1000.49 999.67 998.46 997.90 996.93 996.39 995.67 995.72 995.47 995.70 995.54 995.58 995.01 994.72 995.21 995.92 996.78 997.69 998.63 999.21 1000.03 1000.72 1001.24 1001.86 1002.56 1003.25 1004.06 1004.94 1005.98 1007.08 1007.90
1008.12 1007.70 1007.18 1006.66 1006.10 1005.50 1004.75 1004.31 1004.00 1003.66 1003.26 1002.20 1001.60 1000.89 1000.30 999.61 998.85 998.69 998.00 996.80 996.52 996.82 996.72 996.66 996.31 995.79 995.84 995.91 996.29 997.18 998.04 998.94 999.72 1000.40 1001.10 1001.58 1002.13 1002.77 1003.57 1004.40 1005.33 1006.32 1007.40 1008.34
1008.21 1008.04 1007.43 1006.81 1006.31 1005.94 1005.36 1004.84 1004.42 1004.02 1003.90 1003.23 1002.32 1001.58 1001.01 1000.47 999.85 998.98 998.88 998.21 998.22 998.14 998.26 997.82 997.36 996.66 996.41 996.76 997.17 997.84 998.53 999.32 1000.09 1000.79 1001.29 1001.92 1002.57 1003.34 1004.07 1004.88 1005.75 1006.78 1007.66 1008.42
1008.30 1007.88 1007.51 1007.17 1006.95 1006.51 1006.06 1005.48 1004.83 1004.19 1003.71 1003.21 1002.85 1002.30 1001.62 1000.82 1000.81 999.85 999.54 999.51 1000.03 999.99 999.44 998.75 998.08 997.75 997.68 997.96 998.01 998.45 998.98 999.50 1000.17 1001.14 1001.83 1002.47 1003.19 1003.94 1004.74 1005.46 1006.30 1007.36 1008.37 1009.34
1008.27 1008.15 1007.86 1007.61 1007.56 1007.30 1006.53 1006.05 1005.40 1004.79 1004.41 1003.91 1003.52 1003.39 1003.26 1002.76 1002.17 1001.87 1001.20 1000.80 1001.06 1000.65 1000.08 999.44 999.10 999.02 998.84 998.85 998.91 999.15 999.57 1000.13 1000.77 1001.55 1002.40 1003.20 1004.09 1005.03 1005.75 1006.59 1007.47 1008.32 1009.31 1010.23
1008.74 1008.57 1008.44 1008.21 1007.93 1007.65 1007.23 1006.74 1006.06 1005.51 1005.07 1004.77 1004.44 1003.93 1003.54 1003.15 1003.16 1002.68 1002.50 1002.59 1002.30 1001.65 1001.14 1000.88 1000.55 1000.26 1000.09 999.95 1000.32 1000.26 1000.70 1001.31 1001.81 1002.33 1003.43 1004.43 1005.37 1006.25 1007.18 1007.99 1008.76 1009.57 1010.35 1011.21
1009.18 1008.96 1008.71 1008.46 1008.41 1008.14 1007.85 1007.56 1007.24 1006.65 1005.97 1005.61 1005.35 1004.91 1004.71 1004.70 1004.12 1003.49 1003.69 1003.81 1003.18 1002.73 1002.42 1002.21 1001.88 1001.30 1000.98 1001.21 1001.78 1001.96 1002.14 1002.62 1003.22 1003.87 1004.68 1005.58 1006.41 1007.29 1008.23 1009.18 1010.05 1010.76 1011.53 1012.35
1009.58 1008.95 1008.90 1008.82 1008.48 1008.09 1008.01 1007.99 1007.88 1007.58 1007.10 1006.67 1006.35 1006.20 1005.96 1005.37 1005.05 1004.89 1004.54 1004.25 1004.07 1003.93 1003.77 1003.29 1003.05 1002.59 1002.29 1002.73 1003.25 1003.55 1003.82 1004.13 1004.81 1005.35 1005.99 1006.75 1007.54 1008.34 1009.32 1010.17 1011.07 1012.00 1012.73 1013.45
1010.72 1010.01 1009.40 1009.08 1008.99 1008.98 1008.64 1008.52 1008.33 1008.24 1007.91 1007.47 1007.12 1006.77 1006.59 1006.42 1006.04 1005.90 1005.60 1005.47 1004.77 1003.87 1004.01 1003.67 1003.53 1004.06 1004.18 1004.32 1004.77 1005.02 1005.33 1005.88 1006.29 1006.72 1007.32 1008.15 1008.90 1009.47 1010.22 1011.06 1011.96 1012.76 1013.60 1014.43
1011.80 1011.21 1010.41 1009.97 1009.79 1009.56 1009.36 1009.02 1008.95 1008.84 1008.70 1008.57 1008.12 1008.02 1007.66 1007.25 1006.62 1006.21 1006.17 1005.96 1005.90 1005.48 1005.08 1005.22 1005.51 1005.69 1005.57 1005.80 1006.34 1006.61 1007.09 1007.63 1007.98 1008.43 1008.91 1009.65 1010.29 1010.95 1011.51 1012.21 1013.14 1013.90 1014.64 1015.37
1012.92 1012.36 1011.64 1011.01 1010.77 1010.21 1009.94 1009.72 1009.56 1009.59 1009.53 1009.37 1009.01 1008.64 1008.30 1008.02 1007.84 1007.46 1007.38 1007.30 1007.33 1006.73 1006.70 1006.76 1006.78 1006.89 1007.09 1007.48 1007.99 1008.27 1008.59 1009.19 1009.69 1010.05 1010.46 1011.13 1011.73 1012.33 1012.86 1013.42 1014.15 1014.85 1015.57 1016.45
Wind_Speed
16 15 16 19 21 18 16 19 15 18 18 21 19 18 13 10 10 16 17 15 11 8 12 14 15 17 14 13 13 10 10 10 9 10 10 12 13 12 11 10 10 10 10 8
14 15 16 19 23 18 18 17 18 14 16 13 13 13 13 13 14 17 15 14 16 16 17 21 21 15 12 12 12 10 11 12 13 11 13 13 13 12 12 10 10 10 9 10
9 3 6 10 11 8 4 4 5 7 19 11 15 14 14 17 19 19 15 14 12 20 18 21 20 11 11 11 11 11 12 14 15 14 14 13 13 13 12 11 10 10 8 9
4 3 5 7 4 5 6 8 11 12 12 11 14 16 19 17 23 18 12 13 13 11 22 19 21 17 10 7 9 11 10 14 13 13 13 13 13 12 12 10 10 8 8 8
3 4 9 10 0 2 1 7 8 6 11 16 17 20 20 10 12 10 14 17 13 15 17 23 24 14 6 6 7 9 11 12 14 15 15 14 14 14 10 12 9 7 7 8
1 4 5 2 3 9 4 6 4 12 18 20 14 15 17 13 18 21 20 18 18 20 20 19 16 12 6 7 7 12 12 12 13 15 16 15 16 15 7 10 10 8 10 8
8 6 8 3 9 9 5 3 15 18 18 19 14 14 22 23 22 17 20 23 18 16 14 18 13 8 12 9 8 10 14 14 13 14 15 15 14 12 12 11 12 10 10 7
3 3 7 1 6 3 6 9 15 19 17 17 17 21 20 22 22 23 22 22 19 13 12 12 11 9 11 6 5 9 15 15 15 13 11 11 16 12 12 12 11 9 9 7
6 6 3 5 11 15 10 11 18 18 17 18 18 21 21 21 21 21 22 18 17 11 13 12 9 4 6 7 5 13 13 14 15 15 13 13 14 13 11 9 9 8 7 5
3 4 7 10 15 9 7 14 13 18 19 18 19 18 21 20 19 18 18 17 14 14 17 18 10 9 11 8 8 13 20 13 14 14 12 11 10 9 9 9 8 7 6 6
7 9 7 13 9 10 8 12 18 18 16 15 16 18 18 18 19 18 18 17 11 17 4 3 10 14 16 13 13 14 16 13 13 12 12 11 9 5 8 5 8 10 8 6
4 14 7 11 9 12 10 17 17 16 16 14 14 15 18 18 18 16 18 17 17 5 6 6 11 14 16 17 16 15 14 11 10 10 9 9 10 9 16 8 11 10 10 7
6 10 6 10 11 7 12 17 15 14 14 15 15 12 16 17 16 21 15 3 11 8 4 7 12 11 11 14 16 14 12 12 10 11 9 9 9 10 8 9 16 14 10 10
6 6 6 10 12 9 13 14 15 12 11 12 13 14 14 12 17 15 15 10 10 9 8 9 12 12 11 13 13 14 12 14 10 8 9 8 8 9 8 8 8 5 13 10
9 8 7 12 9 12 14 11 12 12 14 15 13 13 15 14 13 13 11 9 9 10 10 11 13 9 10 13 14 14 12 9 9 8 7 9 9 9 8 9 8 8 6 9
9 9 11 14 13 14 15 11 13 12 12 13 13 13 16 13 11 10 10 10 10 10 11 10 9 5 9 13 13 10 9 15 11 8 8 9 8 8 9 9 9 8 8 5
7 14 15 15 12 14 15 11 10 11 12 12 16 13 11 13 10 12 12 10 10 13 11 11 8 5 7 11 12 9 10 8 13 10 9 9 9 9 9 9 9 8 7 5
5 5 10 12 10 13 14 12 12 12 11 13 12 11 11 12 12 9 10 8 10 12 13 11 11 6 9 10 12 10 10 9 9 10 10 9 10 10 10 10 10 9 8 4
5 7 10 11 8 12 12 12 12 11 10 11 10 11 11 11 11 11 8 11 13 11 12 11 12 8 8 10 11 9 10 11 11 10 10 11 10 9 10 10 10 9 8 8
5 6 10 11 9 12 11 11 11 12 12 12 12 12 13 15 14 13 10 14 11 5 8 9 9 11 9 4 10 8 10 11 12 11 9 11 10 10 10 10 11 10 10 10
7 7 8 9 8 9 10 11 12 13 13 13 13 12 10 10 9 9 8 9 12 10 9 11 10 7 7 6 8 8 9 10 11 12 10 10 11 10 11 11 11 11 11 11
6 5 6 7 8 8 10 11 12 13 14 13 13 13 13 13 11 8 12 7 6 13 8 7 7 10 9 13 8 9 10 10 10 10 10 11 10 11 11 10 11 10 10 10
7 4 4 6 6 5 7 9 10 11 13 13 13 13 10 7 8 8 8 10 7 10 8 8 8 10 12 12 9 9 11 11 10 10 10 10 10 11 11 11 10 11 11 11
11 7 3 4 4 7 9 8 8 8 9 10 12 11 8 7 7 7 7 9 10 11 10 8 10 14 14 10 9 9 10 11 11 10 11 12 11 12 11 11 12 11 11 13
14 11 9 6 6 4 5 7 7 8 8 8 10 10 12 8 7 7 7 6 13 11 10 15 17 13 10 11 11 10 10 9 9 10 11 11 11 12 12 12 12 12 12 12
13 11 9 9 5 4 4 4 4 4 5 6 7 6 7 7 8 8 9 11 10 11 12 11 10 10 11 12 12 12 12 11 11 11 12 11 12 11 13 13 13 12 12 13
11 14 11 10 10 10 5 4 4 4 4 4 4 5 7 8 9 10 10 10 9 10 9 10 11 13 12 12 12 12 12 11 12 11 11 11 11 11 12 13 13 12 13 12
Wind_Direction
258 265 270 265 265 264 245 251 252 281 275 286 295 299 292 286 299 305 300 297 284 304 316 302 282 277 270 270 263 228 188 166 171 148 142 137 145 149 144 147 145 144 134 138
275 264 256 271 274 260 254 250 255 274 278 251 275 286 300 303 306 305 307 323 329 320 328 314 297 274 273 275 264 194 164 154 151 139 144 145 143 137 134 124 126 128 139 142
265 19 323 273 254 208 188 215 196 248 283 322 307 307 303 301 293 289 289 306 340 323 309 310 307 277 280 284 247 174 154 150 143 147 148 143 139 134 127 130 131 130 127 123
283 350 235 246 198 223 219 249 236 257 292 310 301 301 295 291 280 275 268 311 314 300 295 301 294 289 282 276 236 155 159 139 135 137 136 136 135 131 124 122 121 117 111 105
267 238 285 285 169 187 271 274 278 321 318 302 300 301 290 279 333 298 298 305 294 274 265 275 282 276 273 254 267 142 139 137 139 136 134 139 134 126 117 110 106 99 105 110
251 269 261 310 70 5 342 258 82 317 309 302 302 298 299 307 298 291 288 283 287 285 288 293 268 260 186 201 235 137 135 135 134 135 134 137 123 112 100 104 106 103 99 94
256 261 277 20 4 336 280 320 315 306 302 295 294 287 294 297 294 292 288 287 282 274 267 274 271 222 184 199 187 143 129 129 134 119 126 116 108 113 113 110 104 101 109 107
265 256 279 55 309 254 268 291 304 297 293 301 298 300 296 296 296 296 291 290 286 272 259 294 236 200 181 151 98 135 130 131 112 120 121 119 116 116 111 108 106 113 109 97
195 245 238 304 291 279 269 276 303 300 294 297 295 303 304 302 298 295 290 290 291 272 272 274 235 210 131 133 110 145 134 120 128 118 121 121 118 115 108 115 121 118 121 125
311 261 268 313 289 269 258 291 311 307 299 298 293 295 297 297 295 297 296 288 293 295 274 274 238 214 170 150 141 140 119 139 121 117 117 115 111 116 122 127 124 129 139 140
251 279 295 270 271 281 283 298 312 302 296 301 298 299 299 296 300 299 295 290 282 261 244 98 110 117 134 144 142 133 130 119 116 115 107 89 68 88 126 115 142 152 155 140
312 307 306 305 321 313 304 314 309 305 308 303 304 301 304 302 300 301 296 296 294 48 39 93 105 113 129 134 130 120 118 120 121 115 107 108 107 85 42 69 117 113 119 125
278 297 276 305 299 311 310 314 315 314 307 313 312 311 307 302 303 306 302 15 31 33 64 81 96 90 108 116 124 119 115 115 108 112 116 122 127 124 110 52 66 54 75 100
337 320 318 325 312 327 321 322 315 312 312 311 316 318 310 311 309 321 339 21 23 27 53 74 85 90 100 103 105 109 107 104 112 116 121 127 128 125 130 126 117 83 41 71
357 325 276 312 323 338 333 319 329 339 333 330 335 329 323 327 328 339 338 354 35 41 46 73 84 79 108 109 110 112 113 110 110 108 107 112 117 129 125 114 109 111 109 69
308 330 327 341 331 349 335 344 344 342 340 324 326 350 329 331 340 345 356 27 50 40 31 41 61 30 110 109 106 102 100 107 101 112 118 120 119 119 112 112 120 115 104 110
332 340 336 331 333 345 341 341 342 342 337 342 332 337 346 342 355 6 359 24 54 47 30 30 6 348 97 115 116 112 112 110 118 114 119 120 119 122 124 121 116 108 113 115
303 343 320 317 323 341 339 354 354 352 349 341 344 341 352 357 350 11 5 6 40 43 25 11 5 354 95 104 107 113 117 120 118 120 123 121 122 121 118 118 117 119 113 99
0 344 304 326 347 348 347 356 354 351 1 351 349 357 358 7 354 0 13 47 42 34 359 354 349 32 70 110 116 120 123 122 119 116 117 117 111 115 115 116 116 114 112 95
347 348 1 355 0 360 357 1 359 2 6 7 6 8 6 1 7 356 20 50 31 6 340 359 30 46 46 82 113 122 127 127 121 121 122 119 112 110 113 106 109 101 93 89
344 360 1 3 6 1 1 1 3 9 6 10 13 12 6 357 9 12 29 46 6 357 10 16 34 48 42 59 79 101 113 118 119 117 114 111 100 95 97 96 96 99 98 94
333 345 3 6 10 7 6 12 14 5 6 7 8 11 11 17 19 28 35 31 0 355 27 35 44 49 64 65 70 83 87 96 102 104 102 106 105 101 96 94 93 93 94 94
325 315 7 15 13 7 17 20 23 20 9 6 12 10 12 19 12 24 41 18 22 14 40 43 21 50 65 68 66 74 80 82 86 94 102 103 103 100 99 98 94 95 96 95
352 343 10 360 7 24 25 9 14 14 9 12 12 11 14 6 32 27 27 11 8 45 51 37 50 52 64 72 76 74 76 82 85 86 88 90 98 102 100 101 98 97 96 94
3 2 356 1 7 8 9 3 11 5 7 10 13 11 12 15 23 26 32 37 24 41 52 44 48 52 60 69 64 66 72 74 85 89 88 94 97 100 102 103 102 102 99 97
1 3 358 14 9 359 348 357 10 7 9 13 25 20 19 22 19 32 32 28 40 51 54 50 55 63 67 68 72 75 74 72 73 81 89 90 94 96 100 102 101 101 100 99
5 10 360 1 3 355 345 358 17 14 4 6 8 11 26 21 27 26 26 40 38 46 59 62 59 58 65 68 69 72 73 74 77 83 84 89 90 94 98 101 102 102 101 100